Regional Weather Roundup
Issued by NWS Green Bay, WI

Home | Current Version | Previous Version | Text Only | Print | Product List | Glossary On
Versions: 1 2 3 4 5 6 7 8 9 10 11 12 13 14 15 16 17 18 19 20 21 22 23 24 25 26 27 28 29 30 31 32 33 34 35 36 37 38 39 40 41 42 43 44 45 46 47 48 49 50
000
ASUS43 KGRB 201610
RWRGRB

NORTH-CENTRAL AND NORTHEAST WISCONSIN REGIONAL WEATHER ROUNDUP
NATIONAL WEATHER SERVICE GREEN BAY WI
1100 AM CDT SUN APR 20 2014

WIZ005-009-010>012-018-019-201700-
NORTH CENTRAL WISCONSIN

CITY           SKY/WX    TMP DP  RH WIND       PRES   REMARKS
IRONWOOD       SUNNY     57  43  58 W7        29.99F
MANITOWISH WTR SUNNY     58  45  60 S5        30.04S
ARBOR VITAE    SUNNY     59  46  60 S7        30.05S
EAGLE RIVER    SUNNY     57  42  58 SW7       30.05S
LAND O LAKES   SUNNY     59  42  53 SW6       30.05S
RHINELANDER    CLOUDY    55  43  63 SW8       30.07S
PHILLIPS       SUNNY     61  49  64 SW5       30.04S
ANTIGO           N/A     51  48  88 S8        30.09S
TOMAHAWK       CLOUDY    55  46  69 CALM      30.07S
MERRILL        CLOUDY    55  47  75 SW3       30.08S
$$

WIZ013-073-201700-
NORTHEAST WISCONSIN

CITY           SKY/WX    TMP DP  RH WIND       PRES   REMARKS
IRON MOUNTAIN  PTSUNNY   52  45  77 S7        30.07F
MARINETTE      CLOUDY    41  37  87 S7        30.13R
OCONTO         CLOUDY    42  39  91 S3        30.13S
$$

WIZ017-030-035>037-045-201700-
CENTRAL WISCONSIN

CITY           SKY/WX    TMP DP  RH WIND       PRES   REMARKS
MEDFORD        PTSUNNY   56  51  80 SW9       30.07S
WAUSAU         CLOUDY    55  48  77 SW8       30.07S
MOSINEE        MOSUNNY   54  52  94 S12       30.09F
MARSHFIELD     CLOUDY    57  49  74 SW15      30.08R
WISC RAPIDS    LGT RAIN  52  49  89 S7        30.11S
STEVENS POINT  CLOUDY    50  47  87 S10       30.10F
WAUPACA        RAIN      55  43  62 CALM      30.13S
SHAWANO        LGT RAIN  51  47  86 CALM      30.12S
CLINTONVILLE   RAIN      50  46  87 S6        30.12S
$$

WIZ038-039-048-051-201700-
FOX VALLEY

CITY           SKY/WX    TMP DP  RH WIND       PRES   REMARKS
NWS GREEN BAY  LGT RAIN  50  43  77 S6        30.14R
APPLETON       CLOUDY    52  43  71 VRB5      30.14S
OSHKOSH        CLOUDY    55  40  56 CALM      30.13S
FOND DU LAC    CLOUDY    58  39  49 SW10      30.12F
$$

WIZ022-050-052-201700-
EAST CENTRAL WISCONSIN

CITY           SKY/WX    TMP DP  RH WIND       PRES   REMARKS
STURGEON BAY   CLOUDY    39  34  81 S10       30.15S
MANITOWOC      CLOUDY    43  35  73 S12       30.16F
SHEBOYGAN      CLOUDY    49  38  65 SE6       30.15F
$$

LMZ563-521-522-541>543-201700-
LAKESHORE

STATION/POSITION TIME  TEMP    WIND        PRES    VSBY  WAVE
                       AIR SEA DIR/SP/G                  HT/PER
                 (UTC) (F)     (DEG/KT/KT) (MB)    (MI)  (FT/S)
SHEBOYGAN LKSHOR 1600   41     180/ 17/ 18 1021.8F
KEWAUNEE LKSHORE 1600   39     180/ 13/ 15 1021.9R
TWO RIVERS CG    1500   38                   N/A       6   2
NORTHPORT PIER   1600   38     160/ 10/ 18 1020.7S
SISTER BAY LKSHO 1600   37     180/ 21/ 26   N/A
MENOMINEE LKSHOR 1600   37     170/ 12/ 16 1020.9S
$$



USA.gov is the U.S. government's official web portal to all federal, state and local government web resources and services.